IQ1GE Weather Reports


Display with metric or nautical units.
time (UTC)temp
F
wind
direction
speed
MPH
gust
MPH
rain 1hr
in
rain 24hr
in
rain mn
in
humidity
%
barometer
mb
20260904060431 78 39 0.0 0.0 0.00 0.00 0.00 58 1020.3
20260904055931 78 117 0.0 0.0 0.00 0.00 0.00 58 1020.3
20260904055428 78 122 0.0 0.0 0.00 0.00 0.00 58 1020.4
20260904054931 78 42 0.0 0.0 0.00 0.00 0.00 58 1020.4
20260904054434 77 57 0.0 0.0 0.00 0.00 0.00 57 1020.5
20260904053929 77 70 0.0 0.0 0.00 0.00 0.00 57 1020.4
20260904053431 77 52 0.0 0.0 0.00 0.00 0.00 57 1020.4
20260904052929 77 29 0.0 0.0 0.00 0.00 0.00 56 1020.4
20260904052428 78 76 0.0 0.0 0.00 0.00 0.00 56 1020.4
20260904051929 78 114 0.0 0.0 0.00 0.00 0.00 56 1020.4
20260904051428 78 92 0.0 0.0 0.00 0.00 0.00 56 1020.3
20260904050928 77 81 0.0 0.0 0.00 0.00 0.00 57 1020.4
20260904050434 77 62 0.0 0.0 0.00 0.00 0.00 58 1020.4
20260904045938 77 72 0.0 0.0 0.00 0.00 0.00 58 1020.4
20260904045429 77 94 0.0 0.0 0.00 0.00 0.00 59 1020.3
20260904044928 77 95 0.0 0.0 0.00 0.00 0.00 60 1020.2
20260904044432 77 93 0.0 0.0 0.00 0.00 0.00 60 1020.2
20260904043932 78 86 0.0 0.0 0.00 0.00 0.00 60 1020.2
20260904043432 78 85 0.0 0.0 0.00 0.00 0.00 59 1020.2
20260904042935 78 86 0.0 0.0 0.00 0.00 0.00 57 1020.1
20260904042432 78 87 0.0 0.0 0.00 0.00 0.00 56 1020.1
20260904041929 78 88 0.0 0.0 0.00 0.00 0.00 57 1020.1
20260904041432 78 87 0.0 0.0 0.00 0.00 0.00 57 1020.1
20260904040929 78 97 0.0 0.0 0.00 0.00 0.00 58 1020.1
20260904040435 77 79 0.0 0.0 0.00 0.00 0.00 58 1020.0
20260904035932 78 68 0.0 0.0 0.00 0.00 0.00 59 1020.1
20260904035429 78 68 0.0 0.0 0.00 0.00 0.00 58 1020.0
20260904034929 78 70 0.0 0.0 0.00 0.00 0.00 57 1020.1
20260904034432 78 71 0.0 0.0 0.00 0.00 0.00 57 1020.1
20260904033935 78 74 0.0 0.0 0.00 0.00 0.00 56 1020.1
20260904033429 78 50 0.0 0.0 0.00 0.00 0.00 56 1020.1
20260904032932 78 25 0.0 0.0 0.00 0.00 0.00 57 1020.1
20260904032435 78 66 0.0 0.0 0.00 0.00 0.00 56 1019.9
20260904031932 78 359 0.0 0.0 0.00 0.00 0.00 56 1019.9
20260904031429 77 91 0.0 0.0 0.00 0.00 0.00 56 1020.0
20260904030929 77 91 0.0 0.0 0.00 0.00 0.00 56 1019.9
20260904030432 77 57 0.0 0.0 0.00 0.00 0.00 56 1019.9
20260904025932 77 53 0.0 0.0 0.00 0.00 0.00 56 1019.9
20260904025438 77 52 0.0 0.0 0.00 0.00 0.00 56 1019.9
20260904024929 77 54 0.0 0.0 0.00 0.00 0.00 56 1019.9
20260904024429 78 50 0.0 0.0 0.00 0.00 0.00 56 1020.0
20260904023932 78 51 0.0 0.0 0.00 0.00 0.00 56 1020.0
20260904023432 78 51 0.0 0.0 0.00 0.00 0.00 56 1019.9
20260904022929 78 52 0.0 0.0 0.00 0.00 0.00 56 1019.9
20260904022429 78 51 0.0 0.0 0.00 0.00 0.00 54 1019.9
20260904021938 78 52 0.0 0.0 0.00 0.00 0.00 55 1019.9
20260904021429 78 53 0.0 0.0 0.00 0.00 0.00 55 1019.9
20260904020929 78 336 0.0 0.0 0.00 0.00 0.00 56 1020.0
20260904020430 79 289 0.0 0.0 0.00 0.00 0.00 56 1019.9
20260904015930 79 289 0.0 0.0 0.00 0.00 0.00 55 1020.0
20260904015427 79 289 0.0 0.0 0.00 0.00 0.00 55 1020.0
20260904014927 79 25 0.0 0.0 0.00 0.00 0.00 51 1019.9
20260904014430 79 110 0.0 0.0 0.00 0.00 0.00 51 1019.9
20260904013927 79 43 0.0 0.0 0.00 0.00 0.00 53 1019.9
20260904013427 79 64 0.0 0.0 0.00 0.00 0.00 52 1019.9
20260904012927 78 79 0.0 0.0 0.00 0.00 0.00 54 1019.9
20260904012427 78 56 0.0 0.0 0.00 0.00 0.00 57 1019.9
20260904011930 78 359 0.0 0.0 0.00 0.00 0.00 60 1020.0
20260904011430 78 359 0.0 0.0 0.00 0.00 0.00 59 1020.0
20260904010936 78 359 0.0 0.0 0.00 0.00 0.00 61 1020.0
20260904010427 79 359 0.0 0.0 0.00 0.00 0.00 61 1020.1
20260904005927 79 359 0.0 0.0 0.00 0.00 0.00 59 1020.0
20260904005430 79 359 0.0 0.0 0.00 0.00 0.00 59 1020.0
20260904004933 79 359 0.0 0.0 0.00 0.00 0.00 57 1020.0
20260904004436 79 359 0.0 0.0 0.00 0.00 0.00 56 1020.0
20260904003927 79 359 0.0 0.0 0.00 0.00 0.00 56 1020.0
20260904003430 79 359 0.0 0.0 0.00 0.00 0.00 60 1020.0
20260904002927 79 359 0.0 0.0 0.00 0.00 0.00 59 1020.0
20260904002427 79 359 0.0 0.0 0.00 0.00 0.00 56 1020.1
20260904001930 79 359 0.0 0.0 0.00 0.00 0.00 56 1020.1
20260904001433 79 359 0.0 0.0 0.00 0.00 0.00 58 1020.1
20260904000933 79 359 0.0 0.0 0.00 0.00 0.00 59 1020.2
20260904000432 79 359 0.0 0.0 0.00 0.00 0.00 57 1020.2
20260903235927 79 99 0.0 0.0 0.00 0.00 0.00 58 1020.2
20260903235427 79 93 0.0 0.0 0.00 0.00 0.00 57 1020.2
20260903234933 79 102 0.0 0.0 0.00 0.00 0.00 58 1020.1
20260903234427 79 97 0.0 0.0 0.00 0.00 0.00 59 1020.1
20260903233927 79 94 0.0 0.0 0.00 0.00 0.00 59 1020.0
20260903233427 80 90 0.0 0.0 0.00 0.00 0.00 60 1020.0
20260903232927 80 90 0.0 0.0 0.00 0.00 0.00 60 1020.0
20260903232430 80 97 0.0 0.0 0.00 0.00 0.00 59 1020.0
20260903231927 80 102 0.0 0.0 0.00 0.00 0.00 60 1020.0
20260903231427 79 83 0.0 0.0 0.00 0.00 0.00 61 1020.0
20260903230933 79 75 0.0 0.0 0.00 0.00 0.00 63 1020.1
20260903230427 80 95 0.0 0.0 0.00 0.00 0.00 64 1020.1
20260903225927 80 81 0.0 0.0 0.00 0.00 0.00 64 1020.2
20260903225430 80 87 0.0 0.0 0.00 0.00 0.00 63 1020.2
20260903224927 80 85 0.0 0.0 0.00 0.00 0.00 64 1020.1
20260903224427 80 121 0.0 0.0 0.00 0.00 0.00 64 1020.1
20260903223930 80 58 0.0 0.0 0.00 0.00 0.00 64 1020.1
20260903223427 80 53 0.0 0.0 0.00 0.00 0.00 65 1020.1
20260903222930 80 49 0.0 0.0 0.00 0.00 0.00 65 1020.1
20260903222433 80 45 0.0 0.0 0.00 0.00 0.00 66 1020.1
20260903221927 80 45 0.0 0.0 0.00 0.00 0.00 66 1020.1
20260903221430 80 45 0.0 0.0 0.00 0.00 0.00 66 1020.1
20260903220927 80 108 0.0 0.0 0.00 0.00 0.00 67 1020.1
20260903220427 80 87 0.0 0.0 0.00 0.00 0.00 67 1020.1
20260903215927 80 86 0.0 0.0 0.00 0.00 0.00 68 1020.2
20260903215427 79 115 0.0 0.0 0.00 0.00 0.00 69 1020.3
20260903214927 79 115 0.0 0.0 0.00 0.00 0.00 69 1020.1
20260903214427 79 119 0.0 0.0 0.00 0.00 0.00 70 1020.1
20260903213927 79 116 0.0 0.0 0.00 0.00 0.00 70 1020.1
20260903213433 80 115 0.0 0.0 0.00 0.00 0.00 70 1020.1
20260903212936 80 106 0.0 0.0 0.00 0.00 0.00 71 1020.2
20260903212427 80 104 0.0 0.0 0.00 0.00 0.00 71 1020.1
20260903211927 80 101 0.0 0.0 0.00 0.00 0.00 71 1020.2
20260903211427 80 29 0.0 0.0 0.00 0.00 0.00 71 1020.1
20260903210933 80 48 0.0 0.0 0.00 0.00 0.00 70 1020.2
20260903210436 80 39 0.0 0.0 0.00 0.00 0.00 71 1020.1
20260903205927 80 39 0.0 0.0 0.00 0.00 0.00 71 1020.1
20260903205427 80 25 0.0 0.0 0.00 0.00 0.00 71 1020.0
20260903204933 80 26 0.0 0.0 0.00 0.00 0.00 72 1020.0
20260903204427 80 35 0.0 0.0 0.00 0.00 0.00 72 1020.1
20260903203930 80 343 0.0 0.0 0.00 0.00 0.00 72 1020.1
20260903203433 80 337 0.0 0.0 0.00 0.00 0.00 71 1020.1
20260903202933 80 89 0.0 0.0 0.00 0.00 0.00 71 1020.1
20260903202427 80 35 0.0 0.0 0.00 0.00 0.00 72 1020.0
20260903201927 80 35 0.0 0.0 0.00 0.00 0.00 72 1020.0
20260903201427 81 35 0.0 0.0 0.00 0.00 0.00 72 1020.0
20260903200933 80 81 0.0 0.0 0.00 0.00 0.00 73 1020.1
20260903200427 81 85 0.0 0.0 0.00 0.00 0.00 73 1020.1
20260903195927 81 90 0.0 0.0 0.00 0.00 0.00 72 1020.1
20260903195430 81 97 0.0 0.0 0.00 0.00 0.00 72 1020.0
20260903194930 81 112 0.0 0.0 0.00 0.00 0.00 72 1020.0
20260903194427 81 98 0.0 0.0 0.00 0.00 0.00 72 1020.1
20260903193930 81 82 0.0 0.0 0.00 0.00 0.00 72 1020.0
20260903193427 81 81 0.0 0.0 0.00 0.00 0.00 72 1020.0
20260903192927 81 89 0.0 0.0 0.00 0.00 0.00 72 1020.0
20260903192433 81 82 0.0 0.0 0.00 0.00 0.00 72 1020.0
20260903191927 81 83 0.0 0.0 0.00 0.00 0.00 73 1019.9
20260903191427 81 81 0.0 0.0 0.00 0.00 0.00 72 1019.9
20260903190927 81 126 0.0 0.0 0.00 0.00 0.00 72 1019.9
20260903190430 81 89 0.0 0.0 0.00 0.00 0.00 73 1019.8
20260903185933 81 114 0.0 0.0 0.00 0.00 0.00 73 1019.8
20260903185427 81 97 0.0 0.0 0.00 0.00 0.00 74 1019.7
20260903184930 82 226 0.0 0.0 0.00 0.00 0.00 77 1019.7
20260903184427 82 226 0.0 0.0 0.00 0.00 0.00 77 1019.7
20260903183930 82 226 0.0 0.0 0.00 0.00 0.00 77 1019.7
20260903183433 82 226 0.0 0.0 0.00 0.00 0.00 77 1019.7
20260903182927 82 226 0.0 0.0 0.00 0.00 0.00 77 1019.6
20260903182427 82 226 0.0 0.0 0.00 0.00 0.00 78 1019.5
20260903181930 82 226 0.0 0.0 0.00 0.00 0.00 77 1019.5
20260903181427 83 226 0.0 0.0 0.00 0.00 0.00 77 1019.5
20260903180930 83 226 0.0 0.0 0.00 0.00 0.00 77 1019.6
20260903180427 83 226 0.0 0.0 0.00 0.00 0.00 76 1019.6
20260903175930 83 226 0.0 0.0 0.00 0.00 0.00 76 1019.5
20260903175433 84 226 0.0 0.0 0.00 0.00 0.00 75 1019.5
20260903174927 84 226 0.0 0.0 0.00 0.00 0.00 75 1019.4
20260903174430 84 226 0.0 0.0 0.00 0.00 0.00 74 1019.3
20260903173930 84 226 0.0 0.0 0.00 0.00 0.00 74 1019.4
20260903173433 84 226 0.0 0.0 0.00 0.00 0.00 74 1019.4
20260903172927 84 226 0.0 0.0 0.00 0.00 0.00 74 1019.4
20260903172430 84 226 0.0 0.0 0.00 0.00 0.00 73 1019.4
20260903171927 84 226 0.0 0.0 0.00 0.00 0.00 73 1019.4
20260903171433 84 226 0.0 0.0 0.00 0.00 0.00 73 1019.4
20260903170927 84 226 0.0 0.0 0.00 0.00 0.00 73 1019.4
20260903170430 85 224 0.0 0.0 0.00 0.00 0.00 73 1019.4
20260903165927 85 222 0.0 0.0 0.00 0.00 0.00 72 1019.4
20260903165430 85 211 0.0 0.0 0.00 0.00 0.00 72 1019.4
20260903164933 85 212 0.0 0.0 0.00 0.00 0.00 72 1019.4
20260903164427 85 231 0.0 0.0 0.00 0.00 0.00 72 1019.4
20260903163928 85 231 0.0 0.0 0.00 0.00 0.00 72 1019.4
20260903163431 85 209 0.0 0.0 0.00 0.00 0.00 71 1019.5
20260903162927 85 217 0.0 0.0 0.00 0.00 0.00 70 1019.4
20260903162434 85 224 0.0 0.0 0.00 0.00 0.00 70 1019.4
20260903161927 85 224 0.0 0.0 0.00 0.00 0.00 69 1019.4
20260903161428 85 240 0.0 0.0 0.00 0.00 0.00 70 1019.5
20260903160931 85 220 0.0 0.0 0.00 0.00 0.00 69 1019.4
20260903160431 85 223 0.0 0.0 0.00 0.00 0.00 69 1019.4
20260903155927 85 279 0.0 0.0 0.00 0.00 0.00 70 1019.5
20260903155428 85 224 0.0 0.0 0.00 0.00 0.00 71 1019.4
20260903154931 84 226 0.0 0.0 0.00 0.00 0.00 71 1019.4
20260903154431 84 218 0.0 0.0 0.00 0.00 0.00 72 1019.5
20260903153934 84 193 0.0 0.0 0.00 0.00 0.00 72 1019.5
20260903153428 84 220 0.0 0.0 0.00 0.00 0.00 72 1019.5
20260903152928 84 222 0.0 0.0 0.00 0.00 0.00 73 1019.6
20260903152431 84 237 0.0 0.0 0.00 0.00 0.00 74 1019.6
20260903151928 84 220 0.0 0.0 0.00 0.00 0.00 74 1019.6
20260903151431 84 230 0.0 0.0 0.00 0.00 0.00 73 1019.7
20260903150934 84 197 0.0 0.0 0.00 0.00 0.00 74 1019.5
20260903150428 84 210 0.0 0.0 0.00 0.00 0.00 74 1019.5
20260903145928 84 235 0.0 0.0 0.00 0.00 0.00 74 1019.6
20260903145428 84 237 0.0 0.0 0.00 0.00 0.00 74 1019.6
20260903144931 84 228 0.0 0.0 0.00 0.00 0.00 75 1019.7
20260903144428 84 225 0.0 0.0 0.00 0.00 0.00 74 1019.7
20260903143928 84 214 0.0 0.0 0.00 0.00 0.00 74 1019.8
20260903143428 85 190 0.0 0.0 0.00 0.00 0.00 73 1019.8
20260903142934 84 243 0.0 0.0 0.00 0.00 0.00 74 1019.8
20260903142428 84 210 0.0 0.0 0.00 0.00 0.00 74 1019.9
20260903141931 84 266 0.0 0.0 0.00 0.00 0.00 74 1019.9
20260903141428 84 213 0.0 0.0 0.00 0.00 0.00 74 1019.8
20260903140934 84 235 0.0 0.0 0.00 0.00 0.00 74 1019.9
20260903140428 84 231 0.0 0.0 0.00 0.00 0.00 74 1019.9
20260903135931 84 238 0.0 0.0 0.00 0.00 0.00 74 1020.0
20260903135428 84 239 0.0 0.0 0.00 0.00 0.00 74 1020.0
20260903134931 84 234 0.0 0.0 0.00 0.00 0.00 75 1020.1
20260903134434 84 237 0.0 0.0 0.00 0.00 0.00 74 1020.1
20260903133928 84 238 0.0 0.0 0.00 0.00 0.00 74 1020.2
20260903133428 84 197 0.0 0.0 0.00 0.00 0.00 75 1020.3
20260903132931 84 237 0.0 0.0 0.00 0.00 0.00 75 1020.3
20260903132428 84 206 0.0 0.0 0.00 0.00 0.00 75 1020.1
20260903131934 84 194 0.0 0.0 0.00 0.00 0.00 75 1020.1
20260903131428 84 224 0.0 0.0 0.00 0.00 0.00 74 1020.1
20260903130931 84 205 0.0 0.0 0.00 0.00 0.00 74 1020.1
20260903130437 84 191 0.0 0.0 0.00 0.00 0.00 75 1020.0
20260903125928 84 218 0.0 0.0 0.00 0.00 0.00 75 1020.0
20260903125431 83 212 0.0 0.0 0.00 0.00 0.00 75 1020.1
20260903124928 84 225 0.0 0.0 0.00 0.00 0.00 76 1020.1
20260903124431 83 219 0.0 0.0 0.00 0.00 0.00 76 1020.1
20260903123934 83 212 0.0 0.0 0.00 0.00 0.00 76 1020.1
20260903123428 83 178 0.0 0.0 0.00 0.00 0.00 76 1020.1
20260903122928 84 219 0.0 0.0 0.00 0.00 0.00 75 1020.1
20260903122431 84 237 0.0 0.0 0.00 0.00 0.00 76 1020.0
20260903121928 84 206 0.0 0.0 0.00 0.00 0.00 75 1020.0
20260903121431 84 233 0.0 0.0 0.00 0.00 0.00 75 1020.1
20260903120928 84 222 0.0 0.0 0.00 0.00 0.00 75 1020.1
20260903120431 84 231 0.0 0.0 0.00 0.00 0.00 74 1020.1
20260903115934 84 228 0.0 0.0 0.00 0.00 0.00 75 1020.1
20260903115428 84 251 0.0 0.0 0.00 0.00 0.00 74 1020.1
20260903114931 84 239 0.0 0.0 0.00 0.00 0.00 74 1020.2
20260903114428 84 230 0.0 0.0 0.00 0.00 0.00 73 1020.2
20260903113928 84 226 0.0 0.0 0.00 0.00 0.00 72 1020.2
20260903113431 85 237 0.0 0.0 0.00 0.00 0.00 71 1020.1
20260903112934 85 202 0.0 0.0 0.00 0.00 0.00 71 1020.2
20260903112431 85 201 0.0 0.0 0.00 0.00 0.00 72 1020.2
20260903111928 84 235 0.0 0.0 0.00 0.00 0.00 71 1020.2
20260903111428 85 230 0.0 0.0 0.00 0.00 0.00 71 1020.3
20260903110934 85 260 0.0 0.0 0.00 0.00 0.00 70 1020.4
20260903110431 85 246 0.0 0.0 0.00 0.00 0.00 71 1020.4
20260903105928 84 219 0.0 0.0 0.00 0.00 0.00 71 1020.4
20260903105431 84 168 0.0 0.0 0.00 0.00 0.00 71 1020.5
20260903104934 84 244 0.0 0.0 0.00 0.00 0.00 72 1020.6
20260903104428 84 243 0.0 0.0 0.00 0.00 0.00 70 1020.6
20260903103931 85 176 0.0 0.0 0.00 0.00 0.00 70 1020.7
20260903103428 85 204 0.0 0.0 0.00 0.00 0.00 69 1020.7
20260903102928 85 224 0.0 0.0 0.00 0.00 0.00 68 1020.7
20260903102431 85 219 0.0 0.0 0.00 0.00 0.00 66 1020.8
20260903101934 86 226 0.0 0.0 0.00 0.00 0.00 64 1020.7
20260903101428 87 215 0.0 0.0 0.00 0.00 0.00 64 1020.7
20260903100931 87 204 0.0 0.0 0.00 0.00 0.00 63 1020.7
20260903100428 87 211 0.0 0.0 0.00 0.00 0.00 63 1020.7
20260903095928 87 174 0.0 0.0 0.00 0.00 0.00 62 1020.7
20260903095431 87 202 0.0 0.0 0.00 0.00 0.00 62 1020.7
20260903094934 87 181 0.0 0.0 0.00 0.00 0.00 60 1020.7
20260903094428 87 202 0.0 0.0 0.00 0.00 0.00 60 1020.7
20260903093931 87 220 0.0 0.0 0.00 0.00 0.00 61 1020.9
20260903093428 86 224 0.0 0.0 0.00 0.00 0.00 62 1020.9
20260903092931 86 227 0.0 0.0 0.00 0.00 0.00 63 1020.8
20260903092434 85 228 0.0 0.0 0.00 0.00 0.00 64 1020.8
20260903091928 85 214 0.0 0.0 0.00 0.00 0.00 64 1020.9
20260903091431 85 198 0.0 0.0 0.00 0.00 0.00 64 1020.9
20260903090931 86 207 0.0 0.0 0.00 0.00 0.00 64 1020.9
20260903090434 86 218 0.0 0.0 0.00 0.00 0.00 63 1021.0
20260903085928 86 214 0.0 0.0 0.00 0.00 0.00 64 1020.9
20260903085437 85 214 0.0 0.0 0.00 0.00 0.00 63 1020.8
20260903084928 86 201 0.0 0.0 0.00 0.00 0.00 63 1020.7
20260903084437 86 167 0.0 0.0 0.00 0.00 0.00 63 1020.7
20260903083931 85 167 0.0 0.0 0.00 0.00 0.00 63 1020.6
20260903083431 85 166 0.0 0.0 0.00 0.00 0.00 64 1020.7
20260903082928 84 160 0.0 0.0 0.00 0.00 0.00 66 1020.8
20260903082428 84 159 0.0 0.0 0.00 0.00 0.00 67 1020.7
20260903081934 83 158 0.0 0.0 0.00 0.00 0.00 67 1020.6
20260903081434 83 154 0.0 0.0 0.00 0.00 0.00 68 1020.6
20260903080928 83 143 0.0 0.0 0.00 0.00 0.00 67 1020.6
20260903080428 83 132 0.0 0.0 0.00 0.00 0.00 68 1020.6
20260903075928 83 131 0.0 0.0 0.00 0.00 0.00 68 1020.6
20260903075431 82 131 0.0 0.0 0.00 0.00 0.00 69 1020.5
20260903074931 81 112 0.0 0.0 0.00 0.00 0.00 70 1020.6
20260903074434 81 114 0.0 0.0 0.00 0.00 0.00 70 1020.6
20260903073934 80 111 0.0 0.0 0.00 0.00 0.00 71 1020.6
20260903073437 80 103 0.0 0.0 0.00 0.00 0.00 71 1020.5
20260903072928 80 104 0.0 0.0 0.00 0.00 0.00 71 1020.5
20260903072428 79 105 0.0 0.0 0.00 0.00 0.00 71 1020.6
20260903071934 79 108 0.0 0.0 0.00 0.00 0.00 71 1020.6
20260903071434 79 110 0.0 0.0 0.00 0.00 0.00 72 1020.6
20260903070928 78 116 0.0 0.0 0.00 0.00 0.00 72 1020.6
20260903070428 78 118 0.0 0.0 0.00 0.00 0.00 74 1020.5
20260903065931 78 113 0.0 0.0 0.00 0.00 0.00 73 1020.5
20260903065428 77 105 0.0 0.0 0.00 0.00 0.00 73 1020.5
20260903064928 77 91 0.0 0.0 0.00 0.00 0.00 72 1020.5
20260903064428 77 97 0.0 0.0 0.00 0.00 0.00 72 1020.5
20260903063937 77 83 0.0 0.0 0.00 0.00 0.00 73 1020.4
20260903063428 76 98 0.0 0.0 0.00 0.00 0.00 73 1020.4
20260903062928 76 84 0.0 0.0 0.00 0.00 0.00 73 1020.4
20260903062431 76 87 0.0 0.0 0.00 0.00 0.00 74 1020.3
20260903061928 76 85 0.0 0.0 0.00 0.00 0.00 74 1020.4
20260903061431 76 97 0.0 0.0 0.00 0.00 0.00 74 1020.3
20260903060928 76 108 0.0 0.0 0.00 0.00 0.00 74 1020.3